Location: Devore Heights
(34.2372°N, 117.4156°W)
Time: 01:02:59
(UTC+00:00)

Vanguard 2 Rocket - Pass Details

Date: 20 September 2024
Orbit: 553 x 3298 km, 32.9° (Epoch: 09 October)

Event Time Altitude Azimuth Distance (km) Brightness Sun altitude
Exits shadow 10:22:40 80° 239° (WSW) 2,151 8.4 -38.7°
Maximum altitude 10:23:31 84° 184° (S) 2,190 8.5 -38.6°
Drops below altitude 10° 10:41:04 10° 99° (E) 5,954 11.5 -35.5°
Sets 10:46:13 0° 99° (E) 7,165 12.1 -34.6°
